Location: B?ezina
(49.8085°N, 13.6013°E)
Time: 00:54:38
(UTC+00:00)

CENTAUR R/B - Pass Details

Date: 19 May 2025
Orbit: 645 x 1537 km, 63.4° (Epoch: 15 June)

Event Time Altitude Azimuth Distance (km) Brightness Sun altitude
Rises 23:13:36 0° 316° (NW) 4,132 6.4 -20.2°
Reaches altitude 10° 23:16:11 10° 315° (NW) 3,275 5.8 -20.1°
Maximum altitude 23:24:23 76° 232° (SW) 1,476 3.2 -20.0°
Enters shadow 23:31:27 20° 151° (SSE) 2,987 4.6 -19.9°
